Akron, OH

5:39 PM EDT on July 24, 2017 (GMT -0400)
Akron Fulton International

Weather History for KAKR - August, 2014

Change the Weather History Date:

Friday, August 22, 2014

  Actual Average (KCAK) Record (KCAK)
Temperature  
Mean Temperature 76 °F -  
Max Temperature 84 °F 78 °F 95 °F (1916)
Min Temperature 69 °F 58 °F 40 °F (1895)
Cooling Degree Days 12    
Growing Degree Days 26 (Base 50)    
Moisture  
Dew Point 69 °F    
Average Humidity 81    
Maximum Humidity 91    
Minimum Humidity 59    
Precipitation  
Precipitation 0.01 in - - ()
Sea Level Pressure  
Sea Level Pressure 29.97 in    
Wind  
Wind Speed 3 mph (SSW)    
Max Wind Speed 12 mph    
Max Gust Speed -    
Visibility 8 miles    
Events Rain    
Averages and records for this station are not official NWS values.
T = Trace of Precipitation, MM = Missing Value Source: NWS Daily Summary

Daily Weather History Graph

Daily Weather History Graph

Search for Another Location

Airport or City:

Trip Planner

Search our weather history database for the weather conditions in past years. The results will help you decide how hot, cold, wet, or windy it might be!

Date:

Astronomy

Aug. 22, 2014 Rise Set
Actual Time 6:42 AM EDT 8:14 PM EDT
Civil Twilight 6:13 AM EDT 8:43 PM EDT
Nautical Twilight 5:38 AM EDT 9:17 PM EDT
Astronomical Twilight 5:01 AM EDT 9:54 PM EDT
Moon 4:03 AM EDT (8/22) 6:22 PM EDT (8/22)
Length of Visible Light 14h 29m
Length of Day
13h 31m
Waning Crescent, 8% of the Moon is Illuminated
Aug 22
Waning Crescent
Aug 25
New
Sep 2
First Quarter
Sep 8
Full
Sep 15
Last Quarter

Hourly Weather History & Observations

Time (EDT) Temp. Heat Index Dew Point Humidity Pressure Visibility Wind Dir Wind Speed Gust Speed Precip Events Conditions
12:54 AM 72.0 °F - 68.0 °F 87% 29.99 in 10.0 mi SSW 5.8 mph - N/A   Overcast
1:54 AM 72.0 °F - 68.0 °F 87% 29.99 in 10.0 mi Calm Calm - N/A   Overcast
2:54 AM 71.1 °F - 68.0 °F 90% 29.96 in 10.0 mi Calm Calm - 0.00 in   Overcast
3:54 AM 70.0 °F - 66.9 °F 90% 29.95 in 10.0 mi Calm Calm - N/A   Scattered Clouds
4:29 AM 70.0 °F - 66.9 °F 90% 29.97 in 10.0 mi South 3.5 mph - N/A   Overcast
4:54 AM 70.0 °F - 66.9 °F 90% 29.95 in 10.0 mi Calm Calm - N/A   Overcast
5:30 AM 70.0 °F - 66.9 °F 90% 29.97 in 10.0 mi South 3.5 mph - N/A   Mostly Cloudy
5:54 AM 69.1 °F - 66.0 °F 90% 29.96 in 10.0 mi Calm Calm - N/A   Clear
6:16 AM 70.0 °F - 66.9 °F 90% 29.99 in 10.0 mi SW 5.8 mph - N/A   Mostly Cloudy
6:45 AM 70.0 °F - 66.9 °F 90% 29.99 in 8.0 mi South 4.6 mph - N/A   Overcast
6:54 AM 70.0 °F - 66.9 °F 90% 29.97 in 7.0 mi SSW 3.5 mph - N/A   Overcast
7:07 AM 70.0 °F - 66.9 °F 90% 29.99 in 6.0 mi Calm Calm - N/A   Mostly Cloudy
7:54 AM 72.0 °F - 68.0 °F 87% 29.99 in 7.0 mi SW 4.6 mph - N/A   Overcast
8:04 AM 72.0 °F - 68.0 °F 87% 30.01 in 7.0 mi SW 3.5 mph - N/A   Overcast
8:17 AM 72.0 °F - 68.0 °F 87% 30.02 in 7.0 mi WSW 4.6 mph - N/A   Overcast
8:32 AM 72.0 °F - 68.0 °F 87% 30.02 in 6.0 mi WSW 6.9 mph - N/A   Overcast
8:54 AM 72.0 °F - 68.0 °F 87% 30.00 in 6.0 mi West 5.8 mph - N/A   Overcast
9:01 AM 72.0 °F - 69.1 °F 91% 30.02 in 6.0 mi West 3.5 mph - N/A   Overcast
9:16 AM 73.0 °F - 69.1 °F 87% 30.01 in 7.0 mi Calm Calm - N/A   Overcast
9:54 AM 75.0 °F - 69.1 °F 82% 29.98 in 7.0 mi Calm Calm - N/A   Mostly Cloudy
10:54 AM 79.0 °F - 71.1 °F 77% 29.98 in 9.0 mi Variable 5.8 mph - N/A   Partly Cloudy
11:26 AM 80.1 °F 83.6 °F 71.1 °F 74% 30.00 in 10.0 mi SSW 4.6 mph - N/A   Mostly Cloudy
11:51 AM 80.6 °F 83.9 °F 69.8 °F 70% 29.99 in 10.0 mi Calm Calm - N/A   Scattered Clouds
11:54 AM 80.1 °F 83.2 °F 70.0 °F 71% 29.96 in 10.0 mi Calm Calm - N/A   Scattered Clouds
12:54 PM 82.9 °F 87.5 °F 71.1 °F 67% 29.96 in 10.0 mi Variable 4.6 mph - N/A   Scattered Clouds
1:18 PM 82.0 °F 85.5 °F 69.1 °F 65% 29.98 in 10.0 mi Variable 3.5 mph - N/A   Mostly Cloudy
1:54 PM 82.0 °F 85.9 °F 70.0 °F 67% 29.96 in 10.0 mi South 4.6 mph - N/A   Overcast
2:16 PM 82.9 °F 87.0 °F 70.0 °F 65% 29.97 in 10.0 mi SW 3.5 mph - N/A   Overcast
2:54 PM 82.9 °F 87.0 °F 70.0 °F 65% 29.94 in 10.0 mi West 4.6 mph - 0.00 in   Mostly Cloudy
3:54 PM 84.9 °F 88.8 °F 69.1 °F 59% 29.92 in 5.0 mi Variable 4.6 mph - N/A   Haze
3:57 PM 84.0 °F 88.4 °F 70.0 °F 63% 29.95 in 1.8 mi NNE 9.2 mph - 0.00 in Rain Heavy Rain
4:06 PM 79.0 °F - 73.0 °F 82% 29.95 in 3.0 mi ENE 11.5 mph - 0.00 in Rain Light Rain
4:54 PM 80.1 °F 84.2 °F 73.0 °F 79% 29.93 in 10.0 mi Calm Calm - 0.00 in   Partly Cloudy
5:54 PM 80.1 °F 83.6 °F 71.1 °F 74% 29.93 in 10.0 mi Calm Calm - 0.01 in   Overcast
6:54 PM 81.0 °F 85.8 °F 73.0 °F 77% 29.93 in 10.0 mi ENE 9.2 mph - N/A   Mostly Cloudy
7:10 PM 81.0 °F 85.2 °F 72.0 °F 74% 29.95 in 10.0 mi Calm Calm - N/A   Mostly Cloudy
7:30 PM 80.1 °F 83.6 °F 71.1 °F 74% 29.96 in 10.0 mi ESE 3.5 mph - N/A   Mostly Cloudy
7:54 PM 79.0 °F - 71.1 °F 77% 29.94 in 10.0 mi ENE 3.5 mph - N/A   Scattered Clouds
8:54 PM 75.9 °F - 69.1 °F 79% 29.96 in 10.0 mi North 4.6 mph - N/A   Clear
9:54 PM 73.9 °F - 68.0 °F 82% 29.98 in 10.0 mi NNE 4.6 mph - N/A   Clear
10:54 PM 73.0 °F - 68.0 °F 84% 29.98 in 8.0 mi ENE 3.5 mph - N/A   Clear
11:54 PM 72.0 °F - 68.0 °F 87% 29.99 in 7.0 mi Calm Calm - N/A   Clear